Погода в Теньгушево

Россия / Республика Мордовия     54°45′59″N   42°42′56″E
темп.,
°C
ветер,
м/с
пор.,
м/с
влажн.,
%
обл.,
%
осадки,
мм/ч
давл.,
гПа
погр.,
м
11 мая, вт
вт1100:00+8ссв61396100 0.0 1023344
03:00+8св7149585 0.0 1023387
06:00+9св6139455 0.0 1023364
09:00+13св61182100 0.0 1024470
12:00+20в5862100 0.0 10241195
15:00+19вюв596873 1.1 1024668
18:00+15ююз3689100 1.7 1026307
21:00+11юз119034 1.7 102710
12 мая, ср
ср1200:00+10зюз119022 0.0 102810
03:00+9с3390100 0.0 102743
06:00+11ссв379314 0.0 1026178
09:00+17в5107581 0.0 1024682
12:00+15вюв71481100 0.4 1023894
15:00+15в7148297 0.6 1023886
18:00+17вюв61277100 0.0 1022973
21:00+14вюв3986100 0.0 1023264
13 мая, чт
чт1300:00+14вюв3890100 0.0 1022245
03:00+13в3795100 0.1 1022174
06:00+13в389282 0.0 1022215
09:00+16в51379100 0.0 1020512
12:00+15вюв5118694 1.8 1019596
15:00+17ююв5985100 2.4 1019947
18:00+17ююз2587100 0.3 1018573
21:00+14зюз2296100 5.5 101842
14 мая, пт
пт1400:00+12зсз11954 0.1 101911
03:00+10ссв11967 0.1 102010
06:00+12в1193100 0.0 102062
09:00+17вюв2383100 0.0 1020386
12:00+21ююв34665 0.0 1019994
15:00+24ююв3557100 0.0 10181525
18:00+22юв37745 0.0 1017233
21:00+17вюв41092100 0.3 1016180
15 мая, сб
сб1500:00+15юв379263 0.0 1016129
03:00+15юв34935 0.0 101661
06:00+16юв39875 0.1 1015206
09:00+22ююв6145964 0.1 1015623
12:00+25ююв7144941 0.0 10141199
15:00+25ююв81452100 0.0 10131106
18:00+22ю51166100 0.0 1013392
21:00+17юв498215 0.0 1012146